| time (UTC) | temp F | wind direction | speed knots | gust knots | rain 1hr in | rain 24hr in | rain mn in | humidity % | barometer mb |
| 20260502230903 | 41 | 202 | 0.0 | 0.9 | 0.00 | 0.00 | 0.00 | 73 | |
| 20260502225403 | 42 | 0 | 0.0 | 0.0 | 0.00 | 0.00 | 0.00 | 72 | |
| 20260502223902 | 42 | 0 | 0.0 | 0.0 | 0.00 | 0.00 | 0.00 | 71 | |
| 20260502222402 | 43 | 0 | 0.0 | 0.0 | 0.00 | 0.00 | 0.00 | 72 | |
| 20260502220902 | 43 | 0 | 0.0 | 0.9 | 0.00 | 0.00 | 0.00 | 71 | |
| 20260502215403 | 44 | 0 | 0.0 | 0.0 | 0.00 | 0.00 | 0.00 | 70 | |
| 20260502213902 | 44 | 0 | 0.0 | 0.0 | 0.00 | 0.00 | 0.00 | 69 | |
| 20260502212403 | 45 | 0 | 0.0 | 0.0 | 0.00 | 0.00 | 0.00 | 69 | |
| 20260502210902 | 46 | 0 | 0.0 | 0.0 | 0.00 | 0.00 | 0.00 | 68 | |
| 20260502205402 | 46 | 0 | 0.0 | 0.9 | 0.00 | 0.00 | 0.00 | 68 | |
| 20260502203902 | 47 | 90 | 0.0 | 0.9 | 0.00 | 0.00 | 0.00 | 66 | |
| 20260502202402 | 47 | 90 | 0.9 | 3.5 | 0.00 | 0.00 | 0.00 | 62 | |
| 20260502200902 | 48 | 90 | 0.0 | 0.0 | 0.00 | 0.00 | 0.00 | 63 | |
| 20260502195401 | 48 | 112 | 0.0 | 2.6 | 0.00 | 0.00 | 0.00 | 62 | |
| 20260502193902 | 49 | 112 | 0.0 | 0.0 | 0.00 | 0.00 | 0.00 | 61 | |
| 20260502192403 | 50 | 90 | 0.0 | 1.7 | 0.00 | 0.00 | 0.00 | 58 | |
| 20260502190904 | 51 | 112 | 0.0 | 0.9 | 0.00 | 0.00 | 0.00 | 56 | |
| 20260502185402 | 53 | 67 | 0.0 | 0.0 | 0.00 | 0.00 | 0.00 | 55 | |
| 20260502183902 | 54 | 67 | 0.0 | 0.0 | 0.00 | 0.00 | 0.00 | 52 | |
| 20260502182402 | 55 | 67 | 0.0 | 0.9 | 0.00 | 0.00 | 0.00 | 51 | |
| 20260502180901 | 57 | 45 | 0.0 | 0.0 | 0.00 | 0.00 | 0.00 | 45 | |
| 20260502163901 | 64 | 45 | 0.9 | 3.5 | 0.00 | 0.00 | 0.00 | 36 | |
| 20260502162403 | 65 | 225 | 0.9 | 2.6 | 0.00 | 0.00 | 0.00 | 36 | |
| 20260502160903 | 66 | 225 | 0.9 | 5.2 | 0.00 | 0.00 | 0.00 | 34 | |
| 20260502150904 | 68 | 247 | 0.9 | 3.5 | 0.00 | 0.00 | 0.00 | 30 | |
| 20260502122401 | 74 | 225 | 1.7 | 5.2 | 0.00 | 0.00 | 0.00 | 29 | |
| 20260502120903 | 74 | 225 | 0.9 | 3.5 | 0.00 | 0.00 | 0.00 | 31 | |
| 20260502115409 | 73 | 247 | 0.9 | 4.3 | 0.00 | 0.00 | 0.00 | 30 | |
| 20260502113902 | 72 | 225 | 0.9 | 3.5 | 0.00 | 0.00 | 0.00 | 31 | |
| 20260502112402 | 71 | 225 | 0.9 | 3.5 | 0.00 | 0.00 | 0.00 | 29 | |
| 20260502110902 | 70 | 225 | 1.7 | 3.5 | 0.00 | 0.00 | 0.00 | 35 | |
| 20260502105402 | 69 | 180 | 1.7 | 3.5 | 0.00 | 0.00 | 0.00 | 35 | |
| 20260502103902 | 68 | 112 | 0.9 | 5.2 | 0.00 | 0.00 | 0.00 | 38 | |
| 20260502102402 | 67 | 225 | 1.7 | 5.2 | 0.00 | 0.00 | 0.00 | 39 | |
| 20260502100902 | 67 | 225 | 1.7 | 5.2 | 0.00 | 0.00 | 0.00 | 39 | |
| 20260502090902 | 66 | 225 | 0.9 | 3.5 | 0.00 | 0.00 | 0.00 | 42 | |
| 20260502070902 | 66 | 225 | 0.0 | 0.9 | 0.00 | 0.00 | 0.00 | 50 | |
| 20260502065402 | 66 | 0 | 0.0 | 0.9 | 0.00 | 0.00 | 0.00 | 52 | |
| 20260502063902 | 65 | 0 | 0.9 | 1.7 | 0.00 | 0.00 | 0.00 | 55 | |
| 20260502062402 | 64 | 90 | 0.0 | 0.9 | 0.00 | 0.00 | 0.00 | 57 | |
| 20260502060901 | 62 | 90 | 0.0 | 0.0 | 0.00 | 0.00 | 0.00 | 57 | |
| 20260502055404 | 61 | 90 | 0.0 | 0.0 | 0.00 | 0.00 | 0.00 | 58 | |
| 20260502053903 | 60 | 90 | 0.0 | 0.0 | 0.00 | 0.00 | 0.00 | 58 | |
| 20260502052402 | 55 | 90 | 0.0 | 0.0 | 0.00 | 0.00 | 0.00 | 61 | |
| 20260502050902 | 51 | 112 | 0.0 | 0.9 | 0.00 | 0.00 | 0.00 | 65 | |
| 20260502045403 | 46 | 112 | 0.0 | 0.9 | 0.00 | 0.00 | 0.00 | 70 | |
| 20260502043901 | 44 | 90 | 0.0 | 0.9 | 0.00 | 0.00 | 0.00 | 74 | |
| 20260502042402 | 38 | 90 | 0.0 | 0.9 | 0.00 | 0.00 | 0.00 | 81 | |
| 20260502040901 | 34 | 90 | 0.9 | 1.7 | 0.00 | 0.00 | 0.00 | 83 | |
| 20260502035402 | 34 | 67 | 0.0 | 0.9 | 0.00 | 0.00 | 0.00 | 83 | |
| 20260502033903 | 34 | 90 | 0.9 | 1.7 | 0.00 | 0.00 | 0.00 | 83 | |
| 20260502032403 | 34 | 90 | 0.0 | 1.7 | 0.00 | 0.00 | 0.00 | 82 | |
| 20260502030904 | 35 | 90 | 0.0 | 1.7 | 0.00 | 0.00 | 0.00 | 82 | |
| 20260502025402 | 35 | 90 | 0.0 | 0.9 | 0.00 | 0.00 | 0.00 | 82 | |
| 20260502023904 | 35 | 90 | 0.0 | 0.9 | 0.00 | 0.00 | 0.00 | 82 | |
| 20260502022403 | 35 | 90 | 0.0 | 0.0 | 0.00 | 0.00 | 0.00 | 81 | |
| 20260502020901 | 35 | 112 | 0.0 | 0.9 | 0.00 | 0.00 | 0.00 | 81 | |
| 20260502015402 | 36 | 67 | 0.0 | 0.9 | 0.00 | 0.00 | 0.00 | 80 | |
| 20260502013903 | 36 | 90 | 0.0 | 0.9 | 0.00 | 0.00 | 0.00 | 79 | |
| 20260502012403 | 36 | 90 | 0.0 | 0.9 | 0.00 | 0.00 | 0.00 | 80 | |
| 20260502010902 | 36 | 90 | 0.9 | 1.7 | 0.00 | 0.00 | 0.00 | 79 | |
| 20260502005402 | 37 | 112 | 0.9 | 1.7 | 0.00 | 0.00 | 0.00 | 79 | |
| 20260502003902 | 37 | 90 | 0.0 | 0.0 | 0.00 | 0.00 | 0.00 | 79 | |
| 20260502002402 | 37 | 90 | 0.0 | 1.7 | 0.00 | 0.00 | 0.00 | 77 | |
| 20260502000901 | 38 | 67 | 0.0 | 0.0 | 0.00 | 0.00 | 0.00 | 77 | |
| 20260501235403 | 38 | 67 | 0.0 | 1.7 | 0.00 | 0.00 | 0.00 | 77 | |
| 20260501233905 | 38 | 112 | 0.0 | 1.7 | 0.00 | 0.00 | 0.00 | 76 | |
| 20260501232403 | 39 | 90 | 0.0 | 0.9 | 0.00 | 0.00 | 0.00 | 76 |